CDT,Max TemperatureF,Mean TemperatureF,Min TemperatureF,Max Dew PointF,MeanDew PointF,Min DewpointF,Max Humidity, Mean Humidity, Min Humidity, Max Sea Level PressureIn, Mean Sea Level PressureIn, Min Sea Level PressureIn, Max VisibilityMiles, Mean VisibilityMiles, Min VisibilityMiles, Max Wind SpeedMPH, Mean Wind SpeedMPH, Max Gust SpeedMPH,PrecipitationIn, CloudCover, Events, WindDirDegrees
2013-9-1,88,75,61,72,66,61,100,78,55,29.86,29.80,29.73,10,8,0,14,4,18,0.00,4,Fog,302
2013-9-2,76,67,57,61,58,53,90,68,46,30.04,29.95,29.86,10,10,10,15,8,18,0.00,2,,346
2013-9-3,77,65,53,58,53,50,93,68,43,30.12,30.07,30.04,10,10,10,9,2,12,0.00,2,,307
2013-9-4,84,68,51,65,58,50,96,70,43,30.15,30.12,30.08,10,10,10,13,4,14,0.00,3,,240
2013-9-5,78,69,60,65,59,48,93,71,48,30.27,30.21,30.14,10,8,0,16,8,21,0.00,6,,92
2013-9-6,87,73,59,67,58,48,90,68,46,30.24,30.15,30.01,10,10,10,16,6,20,0.00,3,,166
2013-9-7,91,78,65,69,65,61,87,65,43,30.01,29.96,29.89,10,10,6,16,6,21,0.03,4,,194
2013-9-8,79,74,69,68,65,64,84,76,67,30.04,29.99,29.96,10,10,10,21,10,26,0.00,7,,79
2013-9-9,94,81,68,74,70,65,97,75,52,29.96,29.88,29.81,10,7,2,18,9,22,0.00,4,,168
2013-9-10,96,83,69,67,63,57,78,53,27,29.99,29.95,29.88,10,10,10,24,10,30,0.00,0,,218
2013-9-11,87,77,66,70,66,63,90,69,48,30.06,30.02,29.99,10,10,7,10,3,15,0.02,6,Rain,249
2013-9-12,81,70,58,64,54,47,100,68,36,30.13,30.04,30.00,10,10,10,23,9,32,0.00,2,Fog,334
2013-9-13,70,59,48,50,40,32,80,53,25,30.24,30.19,30.14,10,10,10,18,9,24,0.00,1,,28
2013-9-14,73,57,41,48,43,39,96,66,35,30.22,30.14,30.04,10,10,10,15,5,18,0.00,4,Fog,182
2013-9-15,59,56,53,56,53,46,93,80,67,30.22,30.07,30.00,10,7,1,14,6,16,1.10,7,Rain,50
2013-9-16,68,58,47,54,47,42,93,68,42,30.41,30.34,30.22,10,10,10,18,10,23,0.00,3,,50
2013-9-17,72,60,47,56,50,43,93,73,53,30.36,30.26,30.12,10,10,9,16,7,21,T,7,Rain,141
2013-9-18,76,68,59,69,61,53,90,77,64,30.11,30.02,29.91,10,9,5,16,9,21,0.20,6,Rain-Thunderstorm,163
2013-9-19,92,81,69,71,68,64,97,71,44,29.94,29.87,29.74,10,8,2,30,10,43,0.15,6,Rain-Thunderstorm,181
2013-9-20,73,65,56,65,60,50,93,75,57,29.88,29.83,29.76,10,10,7,20,11,25,0.04,7,Rain,260
2013-9-21,68,58,48,51,47,44,93,68,42,29.99,29.92,29.87,10,10,10,16,8,22,0.00,1,,332
2013-9-22,70,57,43,48,45,41,100,70,40,30.10,30.04,30.00,10,10,10,12,3,16,0.00,0,Fog,71
2013-9-23,72,60,47,50,47,44,93,69,44,30.14,30.08,30.04,10,10,10,14,7,18,0.00,1,,108
2013-9-24,74,62,49,51,48,45,89,65,41,30.06,30.01,29.95,10,10,10,16,8,21,0.00,1,,109
2013-9-25,75,62,48,53,49,46,93,67,41,30.01,29.98,29.94,10,9,3,14,6,24,0.00,0,,54
2013-9-26,78,64,49,54,49,46,93,63,33,30.09,30.06,30.00,10,7,0,13,6,16,0.00,0,Fog,109
2013-9-27,82,67,51,55,51,48,89,61,33,30.17,30.10,30.05,10,9,4,20,8,22,0.00,1,,145
2013-9-28,84,69,53,66,56,47,90,67,43,30.08,29.98,29.88,10,10,5,30,13,37,0.07,6,Rain,193
2013-9-29,73,61,49,52,47,40,100,66,31,30.10,30.05,30.01,10,9,2,10,4,14,0.00,3,,346
2013-9-30,76,60,43,50,45,41,92,62,31,30.03,29.95,29.87,10,10,10,17,7,22,0.00,2,,176